SQ953 WIII-WSSS

Flight info

Callsign SQ953
Flight time N/A
Altitude 38000
Route DOLTA G579 REPOV REPOV2A
Aircraft B77W/H-SDE1E2E3FGHIJ2J3J4J5M1RWXY/LB1D1

Departure

Time 2026-05-06 17:33
Airport Soekarno-Hatta International Airport (WIII)

Arrival

Time N/A
Airport Singapore Changi Airport (WSSS)
Time Latitude Longitude Altitude Speed Heading
2026-05-06 17:13 -6.11840 106.66233 43 ft 0 kts 158°
2026-05-06 17:24 -6.11836 106.66231 43 ft 3 kts 158°
2026-05-06 17:24 -6.11812 106.66221 42 ft 4 kts 158°
2026-05-06 17:25 -6.11786 106.66211 38 ft 4 kts 158°
2026-05-06 17:25 -6.11767 106.66203 38 ft 4 kts 142°
2026-05-06 17:25 -6.11756 106.66185 38 ft 4 kts 79°
2026-05-06 17:25 -6.11764 106.66161 40 ft 4 kts 68°
2026-05-06 17:26 -6.11769 106.66148 37 ft 0 kts 68°
2026-05-06 17:28 -6.11766 106.66154 40 ft 1 kts 68°
2026-05-06 17:28 -6.11749 106.66197 41 ft 21 kts 68°
2026-05-06 17:29 -6.11672 106.66381 43 ft 21 kts 52°
2026-05-06 17:29 -6.11538 106.66368 43 ft 21 kts 339°
2026-05-06 17:29 -6.11406 106.66367 43 ft 21 kts 52°
2026-05-06 17:29 -6.11350 106.66501 43 ft 21 kts 69°
2026-05-06 17:30 -6.11297 106.66635 43 ft 21 kts 68°
2026-05-06 17:30 -6.11241 106.66771 43 ft 21 kts 69°
2026-05-06 17:30 -6.11142 106.66837 43 ft 19 kts 341°
2026-05-06 17:30 -6.11103 106.66821 43 ft 0 kts 338°
2026-05-06 17:31 -6.11064 106.66805 43 ft 20 kts 338°
2026-05-06 17:31 -6.10970 106.66721 44 ft 12 kts 262°
2026-05-06 17:31 -6.10979 106.66697 44 ft 0 kts 248°
2026-05-06 17:32 -6.11055 106.66510 44 ft 72 kts 248°
2026-05-06 17:32 -6.11345 106.65780 44 ft 150 kts 248°
2026-05-06 17:32 -6.11796 106.64666 408 ft 174 kts 248°
2026-05-06 17:33 -6.12244 106.63533 1188 ft 178 kts 249°
2026-05-06 17:33 -6.12358 106.62272 1723 ft 190 kts 288°
2026-05-06 17:33 -6.11852 106.60990 2049 ft 214 kts 292°
2026-05-06 17:33 -6.11308 106.59478 2317 ft 245 kts 290°
2026-05-06 17:34 -6.10741 106.57768 2797 ft 267 kts 289°
2026-05-06 17:34 -6.10172 106.55941 3528 ft 279 kts 288°
2026-05-06 17:34 -6.09608 106.54054 4426 ft 284 kts 288°
2026-05-06 17:34 -6.09047 106.52141 5389 ft 287 kts 288°
2026-05-06 17:35 -6.08485 106.50214 6353 ft 287 kts 288°
2026-05-06 17:35 -6.07628 106.48419 7032 ft 289 kts 313°
2026-05-06 17:35 -6.06624 106.47547 7497 ft 287 kts 329°
2026-05-06 17:36 -6.03172 106.45402 9109 ft 295 kts 330°
2026-05-06 17:36 -6.01414 106.44310 9972 ft 298 kts 330°
2026-05-06 17:36 -5.99623 106.43199 10579 ft 311 kts 330°
2026-05-06 17:36 -5.97694 106.42001 10787 ft 340 kts 330°
2026-05-06 17:37 -5.95595 106.40696 11028 ft 366 kts 329°
2026-05-06 17:37 -5.93397 106.39322 11663 ft 379 kts 329°
2026-05-06 17:37 -5.91130 106.37903 12451 ft 387 kts 329°
2026-05-06 17:37 -5.88829 106.36461 13358 ft 393 kts 329°
2026-05-06 17:38 -5.86493 106.34997 14186 ft 399 kts 329°
2026-05-06 17:38 -5.84157 106.33533 15021 ft 403 kts 329°
2026-05-06 17:38 -5.81771 106.32037 15886 ft 406 kts 329°
2026-05-06 17:38 -5.79360 106.30528 16731 ft 410 kts 329°
2026-05-06 17:39 -5.76925 106.29003 17556 ft 415 kts 329°
2026-05-06 17:39 -5.74464 106.27464 18340 ft 420 kts 329°
2026-05-06 17:39 -5.71953 106.25930 19039 ft 424 kts 331°
2026-05-06 17:39 -5.69372 106.24459 19691 ft 428 kts 332°
2026-05-06 17:40 -5.66753 106.23005 19877 ft 431 kts 332°
2026-05-06 17:40 -5.64121 106.21549 19865 ft 431 kts 332°
2026-05-06 17:40 -5.61502 106.20092 19877 ft 430 kts 332°
2026-05-06 17:40 -5.58887 106.18627 19875 ft 430 kts 332°
2026-05-06 17:41 -5.56281 106.17160 19875 ft 430 kts 332°
2026-05-06 17:41 -5.53703 106.15705 19874 ft 430 kts 332°
2026-05-06 17:41 -5.51093 106.14231 19874 ft 431 kts 332°
2026-05-06 17:41 -5.48477 106.12753 19873 ft 431 kts 332°
2026-05-06 17:42 -5.45861 106.11275 19869 ft 431 kts 332°
2026-05-06 17:42 -5.43248 106.09800 19872 ft 431 kts 332°
2026-05-06 17:42 -5.40632 106.08324 19874 ft 431 kts 332°
2026-05-06 17:42 -5.38019 106.06849 19872 ft 431 kts 332°
2026-05-06 17:43 -5.35394 106.05368 19878 ft 431 kts 332°
2026-05-06 17:43 -5.32776 106.03890 19879 ft 431 kts 332°
2026-05-06 17:43 -5.30165 106.02416 19880 ft 431 kts 332°
2026-05-06 17:43 -5.27553 106.00942 19879 ft 431 kts 332°
2026-05-06 17:44 -5.24938 105.99466 19879 ft 431 kts 332°
2026-05-06 17:44 -5.22326 105.97992 19881 ft 430 kts 332°
2026-05-06 17:44 -5.19722 105.96521 19881 ft 430 kts 332°
2026-05-06 17:44 -5.17112 105.95048 19878 ft 429 kts 332°
2026-05-06 17:45 -5.14510 105.93579 19876 ft 429 kts 332°
2026-05-06 17:45 -5.11941 105.92129 19887 ft 430 kts 332°
2026-05-06 17:45 -5.09319 105.90641 20373 ft 436 kts 332°
2026-05-06 17:45 -5.06675 105.89134 21095 ft 438 kts 332°
2026-05-06 17:46 -5.04016 105.87617 21822 ft 441 kts 332°
2026-05-06 17:46 -5.01337 105.86088 22491 ft 445 kts 332°
2026-05-06 17:46 -4.98635 105.84546 23131 ft 449 kts 332°
2026-05-06 17:46 -4.95898 105.82985 23690 ft 454 kts 332°
2026-05-06 17:47 -4.93136 105.81411 24189 ft 458 kts 332°
2026-05-06 17:47 -4.90358 105.79827 24720 ft 461 kts 332°
2026-05-06 17:47 -4.87559 105.78232 25251 ft 464 kts 332°
2026-05-06 17:47 -4.84738 105.76624 25752 ft 468 kts 332°
2026-05-06 17:48 -4.81903 105.75009 26291 ft 470 kts 332°
2026-05-06 17:48 -4.79047 105.73382 26800 ft 474 kts 332°
2026-05-06 17:48 -4.76170 105.71743 27302 ft 477 kts 332°
2026-05-06 17:48 -4.73276 105.70094 27805 ft 480 kts 332°
2026-05-06 17:49 -4.70358 105.68433 28306 ft 483 kts 332°
2026-05-06 17:49 -4.67422 105.66761 28752 ft 487 kts 332°
2026-05-06 17:49 -4.64466 105.65077 29206 ft 490 kts 331°
2026-05-06 17:49 -4.61487 105.63381 29682 ft 493 kts 332°
2026-05-06 17:50 -4.58491 105.61676 30085 ft 497 kts 332°
2026-05-06 17:50 -4.55474 105.59958 30453 ft 499 kts 331°
2026-05-06 17:50 -4.52448 105.58236 30838 ft 501 kts 331°
2026-05-06 17:50 -4.49455 105.56532 31242 ft 502 kts 331°
2026-05-06 17:51 -4.46418 105.54803 31639 ft 503 kts 331°
2026-05-06 17:51 -4.43375 105.53072 32080 ft 502 kts 331°
2026-05-06 17:51 -4.40348 105.51349 32602 ft 499 kts 331°
2026-05-06 17:51 -4.37330 105.49631 33149 ft 497 kts 331°
2026-05-06 17:52 -4.34333 105.47927 33681 ft 495 kts 331°
2026-05-06 17:52 -4.31344 105.46226 34132 ft 493 kts 331°
2026-05-06 17:52 -4.28360 105.44529 34558 ft 491 kts 331°
2026-05-06 17:52 -4.25390 105.42840 34996 ft 490 kts 331°
2026-05-06 17:53 -4.22435 105.41160 35418 ft 488 kts 331°
2026-05-06 17:53 -4.19488 105.39484 35835 ft 486 kts 331°
2026-05-06 17:53 -4.16551 105.37814 36259 ft 485 kts 331°
2026-05-06 17:53 -4.13621 105.36148 36658 ft 483 kts 331°
2026-05-06 17:54 -4.10706 105.34491 37056 ft 482 kts 331°
2026-05-06 17:54 -4.07792 105.32834 37460 ft 480 kts 331°
2026-05-06 17:54 -4.04891 105.31185 37833 ft 479 kts 331°
2026-05-06 17:54 -4.01977 105.29529 37860 ft 483 kts 331°
2026-05-06 17:55 -3.96165 105.26226 37859 ft 482 kts 331°
2026-05-06 17:55 -3.90367 105.22932 37861 ft 477 kts 331°
2026-05-06 17:56 -3.84583 105.19675 37865 ft 476 kts 331°
2026-05-06 17:56 -3.78817 105.16435 37867 ft 475 kts 331°
2026-05-06 17:57 -3.73045 105.13189 37869 ft 476 kts 331°
2026-05-06 17:57 -3.70148 105.11558 39624 ft 477 kts 331°
2026-05-06 17:57 -3.67293 105.09951 37765 ft 472 kts 331°
2026-05-06 17:58 -3.61574 105.06731 37882 ft 475 kts 332°
2026-05-06 17:58 -3.55756 105.03458 37877 ft 483 kts 331°